Regional Weather Roundup
Issued by NWS Green Bay, WI

Home | Current Version | Previous Version | Text Only | Print | Product List | Glossary On
Versions: 1 2 3 4 5 6 7 8 9 10 11 12 13 14 15 16 17 18 19 20 21 22 23 24 25 26 27 28 29 30 31 32 33 34 35 36 37 38 39 40 41 42 43 44 45 46 47 48 49 50
000
ASUS43 KGRB 241111
RWRGRB

NORTH-CENTRAL AND NORTHEAST WISCONSIN REGIONAL WEATHER ROUNDUP
NATIONAL WEATHER SERVICE GREEN BAY WI
600 AM CDT FRI MAR 24 2017

WIZ005-009-010>012-018-019-241200-
NORTH CENTRAL WISCONSIN

CITY           SKY/WX    TMP DP  RH WIND       PRES   REMARKS
IRONWOOD       CLOUDY    33  32  96 S3        29.90R FOG
MANITOWISH WTR LGT SNOW  32  32 100 CALM      29.86F
ARBOR VITAE    CLOUDY    34  33  96 CALM      29.86F FOG
EAGLE RIVER    MIX PCPN  32  32 100 CALM      29.87F
LAND O LAKES   MIX PCPN  33  33 100 CALM      29.88F
RHINELANDER    LGT RAIN  33  33 100 NE6       29.85F FOG
PHILLIPS       LGT RAIN  33  33 100 CALM      29.86S
ANTIGO         CLOUDY    32  32 100 N9        29.83F FOG
TOMAHAWK       RAIN      32  32  99 CALM      29.86F
MERRILL        LGT RAIN  33  33 100 NE3       29.86F
$$

WIZ013-073-241200-
NORTHEAST WISCONSIN

CITY           SKY/WX    TMP DP  RH WIND       PRES   REMARKS
IRON MOUNTAIN  CLOUDY    32  29  88 N3        29.88F FOG
MARINETTE        N/A    N/A N/A N/A MISG        N/A
OCONTO         CLOUDY    34  34  98 NE3       29.89F
$$

WIZ017-030-035>037-045-241200-
CENTRAL WISCONSIN

CITY           SKY/WX    TMP DP  RH WIND       PRES   REMARKS
MEDFORD        RAIN      34  33  98 E3        29.84S
WAUSAU         LGT RAIN  34  33  96 E5        29.85S FOG
MOSINEE        RAIN      36  36 100 NE6       29.84F
MARSHFIELD     LGT RAIN  37  37 100 S6        29.83R FOG
WISC RAPIDS    CLOUDY    38  38 100 CALM      29.87S FOG
STEVENS POINT  LGT RAIN  35  35 100 CALM      29.86R
WAUPACA        CLOUDY    38  35  91 CALM      29.87S FOG
SHAWANO        LGT RAIN  36  34  92 NE5       29.89S
CLINTONVILLE   CLOUDY    34  32  93 CALM      29.87F FOG
WAUTOMA        CLOUDY    38  36  92 E3        29.88S
$$

WIZ038-039-048-051-241200-
FOX VALLEY

CITY           SKY/WX    TMP DP  RH WIND       PRES   REMARKS
NWS GREEN BAY  CLOUDY    37  36  96 CALM      29.89F FOG
APPLETON       CLOUDY    37  36  93 CALM      29.87F
OSHKOSH        CLOUDY    38  35  89 CALM      29.88F
FOND DU LAC    CLOUDY    39  34  82 CALM      29.89R
$$

WIZ022-050-052-241200-
EAST CENTRAL WISCONSIN

CITY           SKY/WX    TMP DP  RH WIND       PRES   REMARKS
EPHRAIM        RAIN      35  35 100 CALM      29.90F
WASHINGTON ISL RAIN      35  35  97 CALM      29.87F
STURGEON BAY   CLOUDY    36  35  96 CALM      29.91S FOG
MANITOWOC      CLOUDY    37  35  92 CALM      29.90F FOG
SHEBOYGAN      CLOUDY    38  34  85 NE5       29.91R
$$

LMZ563-521-522-541>543-241200-
LAKESHORE

STATION/POSITION TIME  TEMP    WIND        PRES    VSBY  WAVE
                       AIR SEA DIR/SP/G                  HT/PER
                 (UTC) (F)     (DEG/KT/KT) (MB)    (MI)  (FT/S)
SHEBOYGAN LKSHOR 1100   36     360/  6/  6 1013.4R
KEWAUNEE LKSHORE 1042   36      60/  2/  3 1012.1F
NORTHPORT PIER   1030   36     170/  2/  4 1013.5R
CHAMBERS ISLAND  1040   35      40/  3/  8 1011.5F
MENOMINEE LKSHOR 1042   35     210/  4/  9 1012.2F
$$




USA.gov is the U.S. government's official web portal to all federal, state and local government web resources and services.